SB KEPS @ AMSAT $ORB08213.O Orbital Elements 08213.OSCAR
HR AMSAT ORBITAL ELEMENTS FOR OSCAR SATELLITES FROM WA5QGD FORT WORTH,TX July 31, 2008 Send Subscribe/unsubscribe to KEPS at http://www.amsat.org/mailman/listinfo/keps BID: ORB08213.O TO ALL RADIO AMATEURS BT
Satellite: AO-07 Catalog number: 07530 Epoch time: 08212.62851404 Element set: 240 Inclination: 101.4629 deg RA of node: 242.6681 deg Eccentricity: 0.0011732 Arg of perigee: 176.0916 deg Mean anomaly: 184.0239 deg Mean motion: 12.53573812 rev/day Decay rate: -2.7e-07 rev/day^2 Epoch rev: 54242 Checksum: 269
Satellite: AO-10 Catalog number: 14129 Epoch time: 08211.94988587 Element set: 0537 Inclination: 026.0102 deg RA of node: 203.1067 deg Eccentricity: 0.5973370 Arg of perigee: 144.3184 deg Mean anomaly: 276.5106 deg Mean motion: 02.05869982 rev/day Decay rate: -2.29e-06 rev/day^2 Epoch rev: 18898 Checksum: 326
Satellite: UO-11 Catalog number: 14781 Epoch time: 08212.80331150 Element set: 732 Inclination: 098.1524 deg RA of node: 247.4829 deg Eccentricity: 0.0008245 Arg of perigee: 297.7726 deg Mean anomaly: 062.2642 deg Mean motion: 14.79655298 rev/day Decay rate: 2.4e-07 rev/day^2 Epoch rev: 31030 Checksum: 295
Satellite: RS-15 Catalog number: 23439 Epoch time: 08212.82748336 Element set: 0182 Inclination: 064.8153 deg RA of node: 064.4775 deg Eccentricity: 0.0147114 Arg of perigee: 114.3857 deg Mean anomaly: 247.2500 deg Mean motion: 11.27552623 rev/day Decay rate: -3.9e-07 rev/day^2 Epoch rev: 55988 Checksum: 312
Satellite: FO-29 Catalog number: 24278 Epoch time: 08213.79001791 Element set: 827 Inclination: 098.5831 deg RA of node: 124.2408 deg Eccentricity: 0.0351372 Arg of perigee: 100.1014 deg Mean anomaly: 263.9949 deg Mean motion: 13.52938469 rev/day Decay rate: -2.3e-07 rev/day^2 Epoch rev: 59042 Checksum: 311
Satellite: SO-33 Catalog number: 25509 Epoch time: 08212.73753080 Element set: 253 Inclination: 031.4314 deg RA of node: 070.0993 deg Eccentricity: 0.0354194 Arg of perigee: 047.9894 deg Mean anomaly: 315.0330 deg Mean motion: 14.28218629 rev/day Decay rate: 4.2e-07 rev/day^2 Epoch rev: 50984 Checksum: 295
Satellite: AO-40 Catalog number: 26609 Epoch time: 08211.80047665 Element set: 0097 Inclination: 007.6455 deg RA of node: 069.4909 deg Eccentricity: 0.7924723 Arg of perigee: 106.6070 deg Mean anomaly: 344.8419 deg Mean motion: 01.25583268 rev/day Decay rate: -2.89e-06 rev/day^2 Epoch rev: 03557 Checksum: 332
Satellite: VO-52 Catalog number: 28650 Epoch time: 08213.71340156 Element set: 994 Inclination: 097.7867 deg RA of node: 279.0962 deg Eccentricity: 0.0027259 Arg of perigee: 358.0440 deg Mean anomaly: 002.0637 deg Mean motion: 14.81486181 rev/day Decay rate: 2.4e-07 rev/day^2 Epoch rev: 17519 Checksum: 319
Satellite: PO-63 Catalog number: 29712 Epoch time: 08213.77206681 Element set: 667 Inclination: 097.8725 deg RA of node: 271.1167 deg Eccentricity: 0.0013028 Arg of perigee: 234.9850 deg Mean anomaly: 125.0126 deg Mean motion: 14.80225464 rev/day Decay rate: 3.51e-06 rev/day^2 Epoch rev: 8406 Checksum: 298
/EX SB KEPS @ AMSAT $ORB08213.D Orbital Elements 08213.MICROS
HR AMSAT ORBITAL ELEMENTS FOR THE MICROSATS FROM WA5QGD FORT WORTH,TX July 31, 2008 Send Subscribe/unsubscribe to KEPS at http://www.amsat.org/mailman/listinfo/keps BID: ORB08213.D TO ALL RADIO AMATEURS BT
Satellite: AO-16 Catalog number: 20439 Epoch time: 08213.51619457 Element set: 382 Inclination: 098.2332 deg RA of node: 191.3194 deg Eccentricity: 0.0011889 Arg of perigee: 047.7558 deg Mean anomaly: 312.4638 deg Mean motion: 14.31799278 rev/day Decay rate: 3.0e-08 rev/day^2 Epoch rev: 96726 Checksum: 331
Satellite: LO-19 Catalog number: 20442 Epoch time: 08213.55615528 Element set: 307 Inclination: 098.2035 deg RA of node: 199.7591 deg Eccentricity: 0.0012649 Arg of perigee: 045.9676 deg Mean anomaly: 314.2556 deg Mean motion: 14.32037816 rev/day Decay rate: 1.01e-06 rev/day^2 Epoch rev: 96742 Checksum: 311
Satellite: AO-27 Catalog number: 22825 Epoch time: 08212.88528184 Element set: 0030 Inclination: 098.3861 deg RA of node: 171.2747 deg Eccentricity: 0.0009156 Arg of perigee: 127.8072 deg Mean anomaly: 232.3921 deg Mean motion: 14.29243280 rev/day Decay rate: -1.01e-06 rev/day^2 Epoch rev: 77401 Checksum: 289
Satellite: IO-26 Catalog number: 22826 Epoch time: 08212.51175627 Element set: 0737 Inclination: 098.3797 deg RA of node: 171.8053 deg Eccentricity: 0.0009548 Arg of perigee: 125.0172 deg Mean anomaly: 235.1908 deg Mean motion: 14.29493011 rev/day Decay rate: 6.0e-08 rev/day^2 Epoch rev: 77405 Checksum: 307
Satellite: PO-28 Catalog number: 22829 Epoch time: 08212.82686759 Element set: 2 Inclination: 098.3670 deg RA of node: 173.2047 deg Eccentricity: 0.0010629 Arg of perigee: 098.0956 deg Mean anomaly: 262.1425 deg Mean motion: 14.30193917 rev/day Decay rate: 2.0e-07 rev/day^2 Epoch rev: 77436 Checksum: 311
Satellite: GO-32 Catalog number: 25397 Epoch time: 08213.82581299 Element set: 660 Inclination: 098.3618 deg RA of node: 246.7785 deg Eccentricity: 0.0002222 Arg of perigee: 099.8864 deg Mean anomaly: 260.2532 deg Mean motion: 14.23146149 rev/day Decay rate: -5.0e-07 rev/day^2 Epoch rev: 52256 Checksum: 319
Satellite: NO-44 Catalog number: 26931 Epoch time: 08213.36303759 Element set: 940 Inclination: 067.0511 deg RA of node: 170.8522 deg Eccentricity: 0.0007341 Arg of perigee: 269.0984 deg Mean anomaly: 090.9258 deg Mean motion: 14.29529078 rev/day Decay rate: -1.17e-06 rev/day^2 Epoch rev: 35672 Checksum: 313
Satellite: SO-50 Catalog number: 27607 Epoch time: 08213.66115028 Element set: 665 Inclination: 064.5592 deg RA of node: 278.5716 deg Eccentricity: 0.0086377 Arg of perigee: 270.6969 deg Mean anomaly: 088.4241 deg Mean motion: 14.71370676 rev/day Decay rate: -6.4e-07 rev/day^2 Epoch rev: 30151 Checksum: 325
Satellite: CO-55 Catalog number: 27844 Epoch time: 08212.54182104 Element set: 0363 Inclination: 098.7160 deg RA of node: 220.2056 deg Eccentricity: 0.0010204 Arg of perigee: 357.3868 deg Mean anomaly: 002.7256 deg Mean motion: 14.20589724 rev/day Decay rate: 2.1e-07 rev/day^2 Epoch rev: 26359 Checksum: 283
Satellite: CO-57 Catalog number: 27848 Epoch time: 08213.53194110 Element set: 313 Inclination: 098.7168 deg RA of node: 220.2709 deg Eccentricity: 0.0010139 Arg of perigee: 357.6129 deg Mean anomaly: 002.5001 deg Mean motion: 14.20398313 rev/day Decay rate: 6.0e-08 rev/day^2 Epoch rev: 26370 Checksum: 272
Satellite: AO-51 Catalog number: 28375 Epoch time: 08212.80578132 Element set: 161 Inclination: 098.0688 deg RA of node: 234.9186 deg Eccentricity: 0.0085207 Arg of perigee: 020.9024 deg Mean anomaly: 339.5609 deg Mean motion: 14.40614412 rev/day Decay rate: -6.0e-08 rev/day^2 Epoch rev: 21468 Checksum: 299
Satellite: CO-56 Catalog number: 28941 Epoch time: 08213.77244585 Element set: 246 Inclination: 098.1112 deg RA of node: 330.6536 deg Eccentricity: 0.0159797 Arg of perigee: 238.5881 deg Mean anomaly: 119.9649 deg Mean motion: 15.58542963 rev/day Decay rate: 1.5108e-04 rev/day^2 Epoch rev: 13698 Checksum: 361
Satellite: CP4 Catalog number: 31122 Epoch time: 08213.72039777 Element set: 400 Inclination: 098.0404 deg RA of node: 277.6572 deg Eccentricity: 0.0085560 Arg of perigee: 189.5971 deg Mean anomaly: 170.3537 deg Mean motion: 14.55147458 rev/day Decay rate: 5.51e-06 rev/day^2 Epoch rev: 6855 Checksum: 312
Satellite: CP3 Catalog number: 31128 Epoch time: 08213.64630657 Element set: 394 Inclination: 098.0363 deg RA of node: 275.1994 deg Eccentricity: 0.0102606 Arg of perigee: 196.7516 deg Mean anomaly: 163.0298 deg Mean motion: 14.51963499 rev/day Decay rate: -4.7e-07 rev/day^2 Epoch rev: 6838 Checksum: 328
/EX SB KEPS @ AMSAT $ORB08213.W Orbital Elements 08213.WEATHER
HR AMSAT ORBITAL ELEMENTS FOR WEATHER SATELLITES FROM WA5QGD FORT WORTH,TX July 31, 2008 Send Subscribe/unsubscribe to KEPS at http://www.amsat.org/mailman/listinfo/keps BID: ORB08213.W TO ALL RADIO AMATEURS BT
Satellite: NOAA-10 Catalog number: 16969 Epoch time: 08212.96652190 Element set: 0226 Inclination: 098.7219 deg RA of node: 234.8455 deg Eccentricity: 0.0013236 Arg of perigee: 055.3397 deg Mean anomaly: 304.9038 deg Mean motion: 14.27364319 rev/day Decay rate: -8.0e-07 rev/day^2 Epoch rev: 13768 Checksum: 319
Satellite: NOAA-11 Catalog number: 19531 Epoch time: 08212.80017913 Element set: 0256 Inclination: 098.7981 deg RA of node: 301.5181 deg Eccentricity: 0.0010935 Arg of perigee: 306.8035 deg Mean anomaly: 053.2140 deg Mean motion: 14.14874759 rev/day Decay rate: 2.25e-06 rev/day^2 Epoch rev: 02407 Checksum: 277
Satellite: NOAA-12 Catalog number: 21263 Epoch time: 08212.92943773 Element set: 0786 Inclination: 098.7678 deg RA of node: 214.8769 deg Eccentricity: 0.0012883 Arg of perigee: 003.5244 deg Mean anomaly: 356.6023 deg Mean motion: 14.25540091 rev/day Decay rate: -2.0e-08 rev/day^2 Epoch rev: 89462 Checksum: 317
Satellite: MET-3/5 Catalog number: 21655 Epoch time: 08212.95145962 Element set: 0484 Inclination: 082.5539 deg RA of node: 073.4665 deg Eccentricity: 0.0012189 Arg of perigee: 265.8905 deg Mean anomaly: 094.0824 deg Mean motion: 13.17016520 rev/day Decay rate: 5.1e-07 rev/day^2 Epoch rev: 81534 Checksum: 307
Satellite: MET-2/21 Catalog number: 22782 Epoch time: 08212.95954659 Element set: 0212 Inclination: 082.5459 deg RA of node: 076.8546 deg Eccentricity: 0.0022703 Arg of perigee: 163.7152 deg Mean anomaly: 196.4739 deg Mean motion: 13.83629769 rev/day Decay rate: -3.1e-07 rev/day^2 Epoch rev: 75318 Checksum: 337
Satellite: OKEAN-4 Catalog number: 23317 Epoch time: 08212.79020165 Element set: 0655 Inclination: 082.5390 deg RA of node: 274.3847 deg Eccentricity: 0.0021894 Arg of perigee: 348.5843 deg Mean anomaly: 011.4874 deg Mean motion: 14.82625229 rev/day Decay rate: 1.0e-07 rev/day^2 Epoch rev: 74474 Checksum: 304
